Wetbulb
77.46 77.51 76.48 73.38 65.21 63.02 56.67 59.32 63.11 61.92 62.65 65.90 65.80 65.36 63.71 64.79 62.48 59.65 71.91 71.88 71.82 73.55 75.18 75.37 76.89 77.93 78.59 78.85 78.00 77.53 77.27 76.91 77.02 76.83 76.59 76.23 76.37 76.81 76.87 76.59 76.90 76.90 76.98 76.57 76.32 76.68 76.31 76.31 76.40
77.50 76.37 75.11 70.66 61.69 56.68 56.80 61.81 60.87 62.94 65.94 67.01 65.27 64.61 64.44 62.03 67.14 68.69 69.65 71.18 72.74 73.96 74.51 75.17 76.46 77.54 77.99 78.13 77.85 77.13 77.20 76.89 76.84 76.75 76.73 76.64 76.62 76.70 76.73 76.73 76.65 76.48 77.07 76.68 76.28 76.59 76.42 76.07 77.14
77.04 76.36 70.95 66.99 60.90 57.21 58.23 62.29 63.94 65.65 66.70 65.33 62.99 66.15 63.78 62.67 66.30 67.80 70.97 71.87 74.05 73.71 74.70 75.66 76.42 76.98 77.28 77.25 77.46 77.39 77.12 76.98 77.11 77.09 76.87 76.59 77.04 76.62 76.51 76.29 76.48 76.32 76.98 76.45 76.48 76.28 76.68 76.29 76.54
74.86 73.52 73.05 61.93 58.79 61.21 61.71 64.15 64.32 64.30 66.24 66.30 63.40 61.19 64.29 67.25 66.44 68.97 71.77 72.94 73.43 74.21 74.70 75.92 76.75 76.76 76.72 76.75 76.95 77.09 76.95 76.89 76.56 76.43 76.68 76.82 76.54 76.37 76.57 76.51 76.12 76.29 76.56 76.54 76.26 76.34 76.51 76.15 76.29
75.03 73.08 63.31 60.06 59.66 62.00 63.98 65.30 65.37 64.01 64.92 65.21 65.45 61.58 62.17 66.52 68.62 71.19 72.85 73.57 74.08 74.74 74.62 75.86 77.43 76.91 76.78 77.12 77.31 77.14 76.87 76.65 76.42 76.59 76.54 76.06 76.90 76.06 76.93 76.68 75.98 76.59 76.43 76.34 76.68 76.37 75.75 75.61 75.90
71.03 70.11 60.13 58.09 60.01 62.30 64.07 65.31 65.24 64.44 65.88 65.93 64.05 62.89 63.24 68.23 68.51 70.95 73.15 72.55 74.43 74.02 74.35 75.47 77.07 77.00 76.61 76.87 76.89 76.84 76.73 76.48 76.51 76.18 76.09 76.45 76.40 76.23 76.26 76.76 76.93 76.62 76.62 76.93 76.62 76.32 75.90 75.51 75.45
70.13 67.32 59.94 60.87 60.56 61.54 62.97 65.81 64.45 64.42 65.28 64.85 67.07 63.14 65.75 66.56 69.35 70.44 71.89 72.67 72.43 72.80 74.20 74.61 75.03 76.69 76.90 77.18 77.06 76.95 76.73 76.40 76.42 76.76 76.18 76.02 76.66 76.43 75.92 76.90 76.84 76.84 76.73 76.45 76.40 76.01 75.56 75.11 74.79
69.97 68.86 61.59 60.99 59.89 60.54 64.46 65.01 65.38 65.12 64.73 69.49 68.30 63.15 63.28 66.05 68.51 69.97 70.87 72.31 73.13 72.93 73.60 74.35 75.14 75.92 76.56 76.23 77.19 77.19 77.05 76.99 76.61 76.50 75.98 76.06 76.32 76.34 76.32 76.92 76.82 77.10 76.98 76.45 76.01 75.65 75.09 74.61 74.37
71.02 64.78 60.56 61.16 62.24 62.85 65.81 63.49 66.03 67.50 66.67 67.07 67.78 67.99 68.02 67.64 69.63 69.20 69.18 70.73 71.34 73.31 73.43 73.51 74.55 76.04 75.33 75.97 76.25 76.96 76.87 76.73 76.43 76.57 76.70 76.45 77.21 77.09 77.06 76.63 77.26 76.98 76.79 76.01 76.26 75.82 75.57 75.23 75.00
67.79 63.25 62.93 65.94 66.19 65.21 65.76 64.60 65.28 64.95 64.99 65.19 67.24 68.76 67.73 67.86 67.96 67.05 66.79 68.31 70.29 70.99 71.77 72.89 74.89 74.18 75.77 74.53 77.37 77.48 76.35 75.70 76.72 76.76 77.12 78.10 77.37 76.90 76.08 77.21 77.18 76.79 76.90 76.76 75.76 76.01 75.73 75.83 74.57
67.21 63.78 66.12 66.34 67.38 67.68 66.10 65.44 66.35 64.84 63.02 65.93 65.24 65.61 66.42 67.02 67.33 66.09 66.97 68.47 69.86 71.27 72.54 74.41 74.36 75.23 75.14 74.51 76.47 76.40 76.74 75.96 76.91 78.03 77.72 77.47 77.48 76.99 76.34 75.92 75.56 76.99 77.17 76.41 75.91 75.50 75.54 75.81 75.55
64.44 65.91 66.80 67.09 67.66 67.34 66.02 67.18 65.11 65.80 65.48 68.01 68.03 67.11 67.63 67.49 67.07 67.72 68.59 69.53 71.01 72.21 73.25 73.85 75.26 75.89 75.55 76.35 75.21 76.28 75.79 76.00 75.50 76.34 77.18 79.34 76.08 76.41 75.98 75.20 75.33 76.69 76.12 75.39 77.31 75.15 75.62 74.36 75.70
62.97 64.89 66.51 67.58 67.62 67.66 68.36 66.07 65.44 65.79 67.66 68.61 69.07 68.13 67.87 68.27 68.54 69.67 70.05 71.18 72.02 72.13 73.19 74.30 75.16 76.22 76.18 77.44 75.73 75.86 75.97 75.03 75.71 76.59 76.46 78.14 77.77 77.30 76.99 76.56 75.55 76.06 76.45 75.32 76.19 75.12 75.11 74.92 74.37
64.80 65.43 65.01 66.22 67.11 67.56 66.87 66.91 67.34 67.05 68.56 67.83 68.18 67.81 68.48 68.89 69.25 69.85 70.32 71.04 72.11 72.80 73.01 74.19 74.83 76.25 76.35 76.45 76.31 76.34 76.24 75.76 76.06 76.43 76.63 77.95 78.00 76.88 76.63 77.39 76.48 75.47 76.53 75.47 74.81 75.03 74.70 75.02 73.91
65.40 62.47 64.64 64.78 66.19 66.44 68.25 64.91 65.43 68.65 68.38 67.01 67.54 68.33 68.69 69.11 69.91 70.15 71.33 71.64 72.78 73.43 73.80 73.94 74.56 75.65 76.29 75.77 76.43 76.08 76.12 76.91 76.83 75.89 78.54 78.48 79.73 78.70 77.96 77.26 75.91 74.70 76.79 77.37 76.49 75.27 73.79 71.71 73.36
62.57 62.24 58.71 63.50 66.19 66.69 66.48 62.35 66.22 69.54 68.20 66.67 67.54 68.29 68.56 69.26 69.82 70.92 71.67 72.15 73.09 72.95 73.11 73.89 73.98 74.42 75.04 75.72 76.77 75.89 75.70 76.10 76.19 76.67 77.40 78.52 78.99 78.88 78.55 77.56 76.26 75.95 76.41 75.37 76.91 74.62 73.94 75.69 75.03
59.56 55.94 56.76 59.71 64.44 64.78 65.04 62.76 66.68 68.86 68.55 67.15 67.54 68.16 68.72 69.29 69.75 70.78 71.01 71.60 71.93 73.10 73.30 73.19 73.85 73.10 75.13 75.93 76.86 77.05 78.19 76.51 75.78 78.02 77.71 79.12 78.11 78.29 78.85 77.89 77.02 78.53 76.54 74.90 75.23 74.93 76.19 74.43 74.12
56.76 56.72 57.94 56.99 59.03 61.00 61.68 62.18 66.42 67.60 68.24 67.88 68.02 68.49 68.60 68.99 69.52 70.33 70.46 71.08 72.56 73.20 73.92 74.17 73.50 74.17 77.49 76.05 77.97 76.66 77.40 76.17 77.88 76.86 77.54 77.52 79.16 78.36 79.23 77.79 77.80 77.67 76.34 76.26 76.43 75.61 76.12 75.03 74.70
58.23 57.91 57.46 59.19 58.42 59.20 60.04 61.12 63.89 67.65 67.11 67.56 68.59 68.50 68.42 68.71 70.58 70.76 70.40 71.32 72.32 72.66 73.94 74.13 74.18 76.89 75.24 74.16 74.26 75.08 74.14 74.98 76.54 76.72 78.13 78.40 78.23 78.06 78.80 79.56 77.26 76.80 76.47 75.62 76.96 75.66 75.29 76.03 75.37
57.56 56.87 56.88 59.61 58.25 57.42 59.41 59.64 62.11 66.28 66.51 67.26 68.08 68.67 68.89 69.17 69.78 70.22 70.19 71.18 71.79 72.58 73.97 74.23 74.62 76.68 75.54 75.40 76.14 75.60 76.65 76.76 76.92 76.76 78.86 78.55 78.71 78.59 77.93 78.37 76.92 77.51 76.20 77.72 76.88 77.05 74.37 74.26 74.87
55.89 55.64 56.74 56.86 58.40 58.31 58.45 58.33 60.61 63.51 66.33 67.06 68.37 69.32 69.71 69.58 69.40 69.89 70.07 70.65 71.62 73.03 73.50 74.51 76.33 77.79 77.91 78.88 77.26 77.19 78.39 77.37 74.90 76.50 76.88 78.37 78.77 78.65 78.30 78.05 78.05 77.60 77.84 75.38 76.96 77.03 76.79 73.00 75.21
51.87 56.49 56.41 55.97 56.40 53.08 57.48 52.49 54.63 62.03 63.69 65.52 66.79 68.21 69.05 69.79 70.46 70.33 70.09 70.05 70.91 72.13 74.08 75.03 76.59 77.93 77.99 79.76 78.50 79.65 75.81 74.53 75.05 76.20 76.37 77.02 78.44 78.46 78.51 78.69 77.95 78.37 76.65 78.88 76.74 76.77 77.68 76.61 73.34
52.65 55.53 55.00 55.85 56.22 55.84 55.45 54.07 55.54 60.44 58.59 60.70 64.54 67.04 68.71 70.27 70.58 69.96 70.14 70.39 70.95 72.10 73.07 74.56 77.07 78.52 79.61 79.28 79.81 77.31 77.45 75.93 76.50 76.74 78.05 79.18 78.53 78.02 78.23 78.63 78.83 77.48 76.12 77.78 77.98 77.68 77.70 78.62 74.89
56.50 54.53 54.60 55.37 55.10 50.72 54.12 54.11 53.52 55.32 57.40 58.76 60.62 63.39 68.04 69.67 70.83 71.12 71.13 71.25 71.01 72.00 72.98 74.14 76.19 78.65 79.17 79.66 78.40 79.55 79.51 77.78 75.29 75.18 75.96 75.84 76.31 76.59 78.84 78.26 78.90 78.20 76.92 77.88 78.88 78.32 77.57 78.29 76.53
55.65 53.09 48.90 48.44 48.60 48.23 54.10 53.05 53.99 57.01 58.38 61.35 61.35 62.39 66.09 69.61 70.56 70.95 70.46 70.52 71.23 71.41 72.35 73.42 76.64 78.29 79.44 78.86 78.30 78.31 78.89 79.38 78.74 78.17 75.95 74.54 74.76 75.92 76.74 79.22 78.29 78.80 78.11 78.42 79.55 79.05 78.38 78.16 76.24
54.20 53.06 49.25 45.65 46.51 47.94 53.56 50.82 53.53 57.57 61.87 63.51 64.45 65.63 67.41 69.13 70.81 71.01 70.95 71.01 71.39 71.85 72.67 74.76 76.83 78.51 77.75 78.95 79.56 79.87 79.92 77.01 77.06 77.80 76.60 75.32 75.25 74.40 77.59 79.02 77.92 78.71 78.87 78.32 79.45 77.36 76.35 77.38 76.68
54.11 52.59 55.22 50.33 50.84 48.37 50.30 52.99 55.88 59.32 60.76 63.93 65.53 67.40 67.51 68.81 70.40 71.07 71.12 71.40 71.86 72.46 73.85 75.33 78.20 78.90 79.51 77.76 79.61 79.17 79.50 79.11 77.87 80.41 78.95 76.81 77.95 76.93 78.59 78.87 78.72 79.23 79.05 79.25 79.81 76.39 77.57 77.88 76.70
55.47 56.54 49.99 51.23 46.46 45.45 48.77 50.51 53.56 57.76 59.14 63.11 66.15 68.04 69.54 69.64 70.49 71.25 71.86 71.94 72.11 72.56 73.65 75.01 78.01 78.64 77.45 77.29 77.61 77.47 77.75 78.90 79.09 79.62 80.28 79.55 79.52 79.77 80.33 78.86 78.25 78.83 80.02 79.53 79.72 78.18 78.32 78.01 75.66
53.82 52.09 53.73 53.27 50.79 47.02 46.01 50.16 58.69 60.20 62.82 63.71 66.85 68.99 70.17 70.25 70.64 71.16 71.84 72.78 73.12 73.16 73.18 73.70 74.66 75.66 76.75 77.39 77.69 77.94 77.41 77.85 78.33 77.35 79.32 79.61 79.60 80.91 80.02 80.42 79.06 79.00 78.22 78.96 79.20 78.82 78.20 77.09 76.56
54.07 52.35 53.00 49.53 50.03 51.69 51.17 51.43 61.85 62.21 64.01 66.62 68.14 69.74 70.30 70.96 71.52 71.86 72.28 72.69 73.10 73.79 74.22 74.05 74.67 75.41 76.32 77.34 78.09 77.15 77.61 78.40 77.47 77.93 77.82 78.84 79.47 81.09 81.09 80.73 79.80 79.36 79.03 79.44 78.27 76.92 76.57 76.34 75.55
MSLP
1008.73 1008.33 1008.13 1007.86 1007.53 1005.54 1005.26 1005.69 1005.69 1005.72 1006.45 1007.63 1008.37 1007.82 1008.64 1009.33 1009.74 1011.44 1012.18 1013.34 1013.72 1013.72 1013.54 1014.34 1014.79 1014.84 1015.08 1015.36 1015.67 1015.81 1016.01 1016.29 1016.30 1016.32 1016.40 1016.49 1016.46 1016.44 1016.52 1016.54 1016.62 1016.67 1016.67 1016.83 1016.88 1016.89 1017.21 1017.36 1017.51
1007.63 1007.78 1007.72 1006.68 1004.90 1003.27 1004.64 1005.25 1005.68 1005.96 1006.85 1007.90 1008.73 1009.19 1009.40 1010.37 1011.27 1011.91 1012.63 1013.66 1013.41 1013.25 1013.34 1014.09 1015.17 1015.17 1015.30 1015.59 1015.83 1016.06 1016.20 1016.39 1016.47 1016.46 1016.56 1016.67 1016.64 1016.62 1016.63 1016.68 1016.80 1016.93 1016.88 1017.06 1017.19 1017.17 1017.24 1017.50 1017.60
1008.05 1007.40 1006.99 1004.27 1002.55 1002.66 1003.42 1004.63 1005.56 1006.42 1007.15 1008.06 1009.40 1010.23 1011.52 1012.21 1012.77 1012.56 1012.85 1013.39 1013.04 1013.09 1013.45 1014.46 1015.30 1015.41 1015.68 1015.97 1015.96 1016.14 1016.32 1016.46 1016.62 1016.68 1016.76 1016.85 1016.80 1016.78 1016.76 1016.85 1016.97 1017.17 1017.20 1017.27 1017.39 1017.48 1017.49 1017.64 1017.80
1007.19 1007.09 1005.24 1002.66 1002.51 1002.81 1003.09 1003.81 1005.31 1006.55 1007.07 1008.29 1009.63 1010.93 1012.76 1013.62 1013.47 1013.49 1013.23 1013.36 1013.34 1013.40 1013.59 1014.97 1015.44 1015.59 1015.80 1016.08 1016.18 1016.25 1016.41 1016.63 1016.77 1016.87 1016.93 1016.99 1016.98 1016.97 1016.89 1017.01 1017.20 1017.33 1017.50 1017.60 1017.66 1017.75 1017.79 1017.86 1017.94
1006.63 1005.04 1003.22 1002.14 1002.64 1002.90 1003.28 1003.57 1004.60 1005.81 1006.53 1008.09 1009.02 1010.79 1012.64 1013.76 1013.76 1013.38 1012.88 1013.08 1012.60 1012.91 1013.87 1014.75 1015.45 1015.68 1015.90 1016.18 1016.34 1016.40 1016.52 1016.77 1016.86 1016.97 1017.04 1017.08 1017.08 1017.16 1017.07 1017.12 1017.39 1017.47 1017.68 1017.79 1017.84 1017.95 1018.08 1018.16 1018.23
1003.96 1003.01 1002.05 1001.58 1002.39 1002.79 1003.25 1003.42 1003.68 1004.69 1005.99 1007.34 1008.61 1010.28 1012.07 1013.23 1013.70 1013.32 1012.74 1012.85 1011.97 1012.42 1012.89 1014.61 1015.55 1015.78 1016.00 1016.35 1016.49 1016.57 1016.65 1016.84 1016.96 1017.06 1017.17 1017.19 1017.24 1017.32 1017.28 1017.26 1017.44 1017.63 1017.71 1017.86 1018.04 1018.16 1018.30 1018.36 1018.44
1002.72 1001.43 1001.16 1001.09 1001.64 1002.44 1003.01 1003.22 1003.06 1003.91 1004.81 1005.98 1007.74 1008.88 1011.35 1012.83 1013.69 1013.58 1013.56 1012.80 1011.48 1011.46 1012.41 1014.13 1014.92 1015.65 1016.05 1016.36 1016.53 1016.65 1016.79 1016.96 1017.02 1017.01 1017.19 1017.16 1017.31 1017.38 1017.39 1017.44 1017.59 1017.76 1017.82 1017.99 1018.15 1018.33 1018.46 1018.49 1018.55
1003.33 1002.45 1000.37 1000.30 1001.07 1002.36 1003.01 1003.03 1003.54 1003.63 1004.22 1005.24 1006.37 1007.66 1010.11 1011.83 1013.23 1013.69 1013.46 1012.41 1011.96 1012.01 1012.34 1013.37 1014.18 1014.93 1015.49 1016.06 1016.58 1016.69 1016.85 1017.00 1017.10 1017.10 1017.23 1017.27 1017.30 1017.38 1017.45 1017.57 1017.66 1017.81 1017.98 1018.11 1018.25 1018.39 1018.48 1018.55 1018.60
1001.48 1001.18 999.99 1000.03 1000.61 1002.13 1002.84 1002.91 1003.63 1003.95 1004.48 1005.09 1005.62 1006.51 1009.20 1011.67 1012.99 1013.75 1013.79 1013.05 1012.67 1012.20 1012.74 1013.36 1013.80 1014.83 1014.72 1014.95 1016.16 1016.63 1016.80 1016.93 1017.05 1017.09 1017.16 1017.13 1016.67 1016.79 1017.20 1017.35 1017.61 1017.87 1018.00 1018.17 1018.30 1018.41 1018.40 1018.52 1018.53
999.91 998.68 1000.25 1000.37 1000.23 1001.44 1002.34 1002.66 1003.60 1003.93 1004.18 1004.84 1005.62 1007.51 1009.80 1011.80 1012.81 1013.36 1013.40 1012.82 1012.85 1013.29 1013.18 1013.26 1012.92 1013.70 1014.72 1014.73 1015.98 1016.22 1016.10 1016.24 1016.28 1016.25 1016.69 1016.74 1016.39 1016.39 1016.68 1016.98 1017.66 1017.92 1018.05 1018.17 1018.31 1018.34 1018.26 1018.30 1017.67
999.13 999.53 1000.05 1000.63 1000.97 1001.31 1001.97 1002.52 1003.21 1003.34 1003.67 1004.53 1005.95 1007.98 1009.78 1010.86 1012.05 1012.34 1012.68 1012.67 1012.61 1012.78 1012.86 1013.07 1013.39 1013.68 1013.94 1015.45 1015.07 1015.61 1015.30 1016.03 1015.90 1016.10 1016.17 1016.12 1016.47 1016.43 1016.23 1016.60 1017.27 1017.57 1017.94 1017.69 1018.05 1018.04 1017.68 1017.21 1017.00
999.06 1000.03 1000.23 1000.74 1001.07 1001.38 1001.77 1002.16 1002.57 1002.40 1003.03 1004.19 1005.85 1007.58 1008.82 1009.76 1010.45 1010.78 1010.88 1011.07 1011.27 1011.63 1011.70 1012.93 1012.72 1013.71 1014.30 1014.94 1014.75 1014.55 1014.66 1015.32 1015.31 1015.19 1015.85 1015.90 1015.93 1016.18 1016.44 1016.59 1016.49 1017.44 1017.44 1017.51 1017.30 1017.15 1017.23 1017.01 1017.12
999.27 999.90 999.99 1000.51 1001.02 1001.09 1001.64 1001.93 1002.09 1002.45 1003.15 1004.15 1005.69 1007.21 1008.09 1008.75 1009.39 1009.57 1009.66 1010.19 1010.97 1011.34 1011.38 1011.75 1012.48 1013.65 1014.04 1014.58 1014.45 1014.25 1014.33 1014.54 1014.28 1014.97 1015.72 1015.85 1016.02 1015.90 1015.89 1016.64 1017.11 1017.15 1016.85 1016.82 1016.76 1016.86 1017.07 1017.04 1017.05
999.55 999.68 999.64 1000.00 1000.46 1000.57 1000.64 1000.88 1001.69 1002.26 1002.97 1003.97 1005.44 1006.61 1007.38 1007.81 1008.34 1008.70 1009.05 1009.73 1010.13 1010.68 1011.09 1011.60 1012.50 1013.79 1014.06 1014.89 1015.58 1015.46 1014.89 1014.51 1014.42 1014.87 1015.35 1015.94 1016.18 1016.39 1016.29 1017.20 1017.49 1017.44 1016.97 1016.60 1016.43 1016.99 1017.43 1017.60 1017.31
999.40 998.58 998.66 999.44 1000.05 999.96 1000.63 1000.49 1000.81 1001.45 1002.66 1003.71 1004.85 1005.97 1006.60 1007.05 1007.57 1007.99 1008.38 1008.77 1009.56 1010.17 1010.77 1011.52 1012.56 1013.33 1014.43 1015.05 1015.09 1014.89 1014.43 1014.45 1014.72 1014.89 1015.34 1015.91 1016.00 1016.31 1016.53 1017.06 1017.61 1017.62 1016.67 1016.46 1016.97 1017.82 1017.84 1017.93 1017.56
997.97 997.82 997.50 998.94 999.72 999.85 999.86 999.86 1000.08 1000.73 1002.04 1002.94 1004.01 1004.93 1005.77 1006.34 1006.69 1007.18 1007.73 1008.25 1008.83 1009.45 1010.13 1011.19 1011.91 1012.90 1014.11 1014.63 1014.84 1014.52 1014.24 1014.42 1014.86 1014.96 1015.16 1015.51 1015.96 1016.24 1016.41 1016.96 1017.30 1017.30 1016.41 1016.50 1016.69 1017.36 1017.73 1017.71 1017.69
998.93 997.90 997.25 997.73 998.60 998.99 999.39 998.69 999.52 1000.30 1001.19 1002.08 1003.17 1003.92 1004.70 1005.38 1005.88 1006.38 1006.99 1007.74 1008.15 1008.94 1009.67 1010.67 1011.44 1012.13 1013.45 1014.60 1014.32 1014.45 1014.09 1014.40 1014.76 1014.71 1015.08 1015.17 1015.45 1015.90 1016.21 1016.66 1017.09 1016.96 1016.38 1016.48 1016.86 1017.19 1017.39 1017.72 1017.35
998.35 997.40 997.07 997.10 997.52 997.89 998.10 997.83 998.74 999.78 1000.28 1001.32 1002.07 1002.90 1003.71 1004.26 1004.96 1005.66 1006.45 1007.21 1007.71 1008.50 1009.42 1010.43 1010.96 1011.64 1012.55 1013.63 1014.25 1014.03 1014.14 1014.25 1014.41 1014.54 1014.71 1015.24 1015.59 1015.76 1016.17 1016.16 1016.51 1016.36 1016.52 1016.75 1016.95 1017.31 1017.14 1016.77 1016.76
998.25 997.87 997.15 997.51 997.53 997.51 997.16 997.25 997.43 998.78 999.57 1000.02 1000.65 1001.62 1002.35 1003.17 1003.99 1004.92 1005.98 1006.72 1007.40 1008.18 1009.14 1010.16 1010.73 1011.56 1012.27 1012.95 1013.60 1013.59 1013.90 1014.13 1014.37 1014.28 1014.23 1014.66 1015.24 1015.51 1015.68 1016.18 1016.23 1016.22 1016.44 1016.60 1016.79 1017.06 1017.14 1017.19 1017.21
998.42 997.74 996.93 997.97 996.96 996.97 996.57 996.70 996.81 997.56 998.75 999.07 999.72 1000.36 1001.34 1002.25 1003.07 1004.27 1005.32 1006.04 1006.97 1007.86 1008.86 1009.85 1010.64 1011.50 1012.31 1012.62 1013.00 1013.14 1013.31 1013.39 1013.20 1013.80 1013.94 1014.64 1014.93 1015.27 1015.60 1015.78 1015.92 1016.04 1016.15 1016.59 1016.90 1017.01 1016.67 1017.03 1017.04
997.76 997.34 996.55 996.49 996.89 996.15 996.30 996.05 996.90 997.44 998.11 998.59 999.07 999.71 1000.46 1001.38 1002.26 1003.53 1004.59 1005.54 1006.44 1007.39 1008.41 1009.45 1010.50 1011.19 1012.03 1012.15 1012.51 1012.79 1013.01 1012.65 1011.96 1013.55 1014.07 1014.59 1014.82 1015.05 1015.43 1015.76 1015.53 1015.83 1016.12 1016.14 1017.05 1017.13 1016.77 1016.82 1016.30
997.31 997.03 996.88 996.90 996.71 995.54 996.04 996.86 999.06 998.57 998.00 998.32 998.62 999.05 999.59 1000.54 1001.67 1002.64 1003.85 1004.91 1005.69 1006.77 1008.00 1008.88 1010.01 1010.83 1011.64 1012.14 1011.91 1012.34 1012.52 1012.63 1012.65 1013.33 1013.76 1014.42 1014.67 1014.92 1015.01 1015.47 1015.45 1015.69 1015.84 1015.66 1016.48 1016.68 1016.64 1017.06 1016.81
997.92 997.60 997.70 997.27 996.77 996.00 995.08 996.12 997.96 997.27 997.47 997.01 997.33 998.15 998.77 999.64 1000.84 1001.64 1003.02 1004.06 1004.89 1005.97 1007.18 1008.30 1009.37 1010.33 1010.90 1011.61 1011.97 1012.01 1012.56 1012.35 1012.35 1013.00 1013.54 1014.22 1014.46 1014.92 1014.58 1015.03 1015.38 1015.60 1015.71 1015.62 1015.95 1016.44 1016.77 1016.97 1016.58
998.17 997.82 997.36 996.98 996.30 995.51 994.72 994.74 995.42 996.42 996.85 996.71 996.81 997.22 997.92 998.50 1000.01 1001.04 1002.37 1003.38 1004.28 1005.14 1006.33 1007.38 1008.52 1009.56 1010.49 1010.97 1011.73 1011.77 1011.79 1012.33 1012.58 1012.96 1013.35 1013.19 1013.78 1014.21 1014.34 1014.90 1015.33 1015.19 1015.38 1015.48 1016.18 1016.62 1016.90 1016.76 1016.94
997.58 996.58 995.65 995.38 994.95 994.34 993.84 994.13 994.50 995.26 995.92 996.45 996.87 997.03 997.06 997.86 999.11 1000.44 1001.33 1002.37 1003.55 1004.32 1005.48 1006.47 1007.59 1008.72 1009.62 1010.29 1010.92 1011.47 1011.68 1011.94 1012.14 1012.19 1012.18 1012.58 1012.61 1013.18 1013.85 1014.50 1015.12 1015.38 1015.23 1015.67 1016.12 1016.22 1016.19 1016.52 1016.90
997.47 996.96 995.91 995.24 994.47 994.07 993.97 994.60 994.17 995.39 995.81 996.63 996.70 996.55 996.77 996.88 998.13 999.74 1000.55 1001.63 1002.77 1003.68 1004.63 1005.65 1006.75 1008.09 1008.99 1009.63 1010.18 1010.82 1011.32 1011.58 1011.80 1011.85 1011.46 1011.75 1011.86 1012.59 1012.84 1013.71 1014.50 1014.54 1014.54 1015.10 1015.67 1015.85 1016.10 1016.24 1016.56
997.56 997.18 996.85 996.48 995.81 995.09 994.51 994.26 994.36 995.06 996.31 996.90 996.88 996.93 996.91 996.94 997.60 999.17 1000.04 1001.10 1002.00 1003.01 1003.82 1004.87 1006.00 1007.30 1008.30 1008.95 1009.58 1010.08 1010.62 1010.95 1010.84 1011.14 1011.65 1011.52 1011.60 1011.64 1012.45 1013.13 1013.67 1013.90 1014.22 1014.68 1015.12 1015.20 1015.48 1015.95 1016.30
998.46 998.29 997.73 996.54 996.08 995.47 994.76 994.60 994.76 995.97 996.72 997.05 997.57 997.89 997.99 997.71 997.93 998.83 999.78 1000.61 1001.49 1002.36 1003.27 1004.15 1005.29 1006.58 1007.45 1008.06 1008.73 1009.18 1009.61 1010.12 1010.40 1010.64 1010.98 1011.29 1011.29 1011.85 1012.17 1012.89 1013.36 1013.67 1014.00 1014.36 1014.83 1014.80 1015.11 1015.54 1015.75
998.22 997.88 997.33 997.14 996.82 996.05 995.42 995.79 996.26 996.98 997.33 997.62 998.32 998.96 999.11 998.88 998.59 998.84 999.47 1000.33 1001.28 1001.93 1002.82 1003.71 1004.77 1005.88 1006.95 1007.38 1007.74 1008.45 1008.83 1009.33 1009.99 1010.01 1010.49 1011.00 1011.33 1011.63 1012.06 1012.66 1013.16 1013.52 1013.85 1014.13 1014.57 1014.71 1014.53 1015.14 1015.46
999.15 998.76 998.27 997.59 997.09 996.45 996.17 996.35 997.52 997.56 997.69 998.43 999.10 999.76 1000.28 1000.24 1000.09 999.79 999.35 999.77 1000.59 1001.61 1002.25 1003.19 1004.25 1005.36 1006.11 1006.57 1007.17 1007.67 1008.32 1008.65 1009.13 1009.57 1009.89 1010.52 1010.95 1011.43 1011.93 1012.24 1012.75 1013.07 1013.48 1013.83 1014.16 1014.48 1014.27 1014.65 1015.31
Wind_Speed
13 13 8 3 5 5 10 8 10 12 10 12 8 8 10 14 10 7 14 12 15 11 17 14 13 14 15 15 15 15 14 13 12 11 10 8 8 8 8 9 8 9 11 9 10 14 15 15 14
10 8 5 6 6 7 10 9 8 10 13 16 12 4 9 11 11 15 12 11 17 12 15 17 12 14 16 15 15 14 14 12 11 10 9 8 7 7 8 8 9 8 11 11 10 12 15 14 13
13 3 5 7 9 12 11 18 13 14 11 10 5 11 4 5 7 3 16 11 9 10 11 17 14 14 14 15 15 14 13 11 10 9 8 6 7 7 7 7 7 8 10 11 11 11 13 13 13
4 6 8 3 12 12 11 11 15 10 8 8 10 10 6 3 1 4 14 12 12 13 11 16 14 14 14 14 13 13 12 10 9 8 7 6 6 6 7 6 7 9 9 11 11 11 12 12 12
5 8 5 11 12 12 11 9 14 14 8 13 9 10 8 6 4 6 13 16 15 16 15 16 13 13 12 12 12 11 10 9 7 6 6 5 6 5 6 7 7 9 8 11 11 11 10 10 10
6 4 2 12 12 8 8 6 8 13 12 14 8 10 7 15 7 6 11 10 17 19 19 17 14 13 13 12 11 10 10 8 7 5 4 4 4 5 5 7 8 8 9 9 10 10 10 9 9
14 5 11 13 12 10 7 2 9 7 12 12 18 13 14 19 13 9 7 14 11 15 17 15 15 12 12 12 12 11 10 9 9 7 6 3 5 4 5 6 6 9 9 8 8 8 8 8 7
6 4 7 9 14 10 7 7 5 7 7 14 16 8 20 18 18 11 7 10 6 11 17 16 15 13 12 11 11 10 9 8 8 6 6 5 5 5 6 7 8 9 9 8 7 6 5 5 4
7 5 13 15 14 8 6 9 7 6 11 5 7 14 26 25 19 13 9 9 8 5 12 10 15 12 8 12 9 9 8 7 6 8 8 8 5 10 9 9 10 9 9 9 8 7 7 6 7
9 13 12 13 8 11 7 9 10 8 11 9 18 26 27 24 18 16 15 12 11 8 10 6 16 12 13 8 11 9 10 9 9 9 9 5 5 4 7 11 10 8 9 9 8 8 9 11 5
12 12 6 8 10 8 8 12 9 11 10 15 22 27 27 24 21 18 18 17 19 19 12 15 7 7 8 8 8 5 7 5 6 6 6 7 4 7 5 7 7 7 10 8 9 8 6 7 10
4 5 6 5 4 5 7 11 9 7 11 17 23 29 27 25 24 22 20 21 18 15 18 15 14 9 7 4 7 8 7 9 7 9 8 3 4 5 4 4 6 8 5 6 5 5 7 8 3
10 8 2 6 3 4 7 8 7 4 14 18 23 26 26 24 25 22 19 16 16 16 14 15 13 10 10 4 2 4 1 5 5 7 8 3 2 2 3 6 4 2 3 7 6 6 4 4 7
8 3 3 4 4 6 10 11 8 9 14 18 23 24 24 25 24 20 18 17 16 16 15 13 12 13 10 6 6 6 6 8 4 3 6 7 2 4 4 3 1 6 3 7 5 1 4 1 3
6 7 11 6 4 6 10 7 12 15 14 17 21 21 22 23 23 21 20 18 18 16 17 15 14 15 10 11 10 8 6 4 3 4 7 5 5 3 3 2 5 7 8 5 6 4 5 6 6
12 8 8 9 8 3 11 15 6 14 17 19 19 20 21 22 22 20 19 18 18 16 16 16 14 14 14 9 7 8 6 3 3 3 4 8 8 7 4 4 4 6 6 6 3 5 5 4 4
27 4 6 13 9 6 9 7 11 12 18 19 19 19 19 20 21 20 20 18 18 17 16 16 16 18 17 12 9 9 6 5 5 3 4 7 7 6 4 4 4 7 6 5 5 7 5 5 7
12 8 8 8 5 7 8 8 13 13 18 17 18 19 19 20 22 21 19 19 18 17 16 16 14 13 15 12 8 9 4 7 2 4 4 9 2 5 3 5 6 10 4 4 4 4 6 6 2
11 13 12 8 5 5 7 6 9 16 14 17 19 20 21 21 21 20 20 19 18 17 16 16 14 12 10 10 10 9 7 6 4 4 6 1 5 4 3 3 7 8 4 4 5 4 4 3 5
15 16 14 14 6 10 6 7 9 17 13 13 15 18 19 19 20 20 21 20 19 18 17 17 15 13 12 10 10 7 4 5 6 5 5 5 5 4 5 5 8 7 4 5 5 5 5 4 6
15 16 18 10 11 18 8 12 8 9 10 11 13 15 18 19 19 20 22 21 20 19 19 17 16 14 13 12 10 7 4 6 9 6 6 5 7 6 5 4 7 7 5 8 5 5 8 4 3
16 14 13 8 13 7 1 3 10 12 11 8 12 14 17 19 19 20 21 22 21 20 18 18 17 15 15 13 10 9 8 6 3 7 6 7 11 7 8 8 6 6 7 4 7 7 5 3 5
14 13 11 14 13 16 11 6 15 15 6 9 13 14 16 20 20 20 21 22 22 21 19 19 18 16 14 14 13 10 10 6 5 6 8 6 7 8 10 9 8 8 8 6 5 4 6 3 5
11 10 12 14 14 13 14 10 7 14 3 4 3 5 15 19 21 19 20 20 20 20 21 20 19 16 16 14 15 13 11 11 4 8 7 8 9 10 9 10 8 9 8 7 5 5 7 5 5
11 15 10 11 12 11 14 7 6 13 7 9 6 5 9 18 22 20 21 20 20 21 22 20 19 17 16 16 16 16 13 11 11 8 8 5 8 8 12 10 8 8 7 5 6 8 4 3 3
14 14 12 11 10 11 9 5 8 5 12 9 7 5 8 18 21 21 21 20 21 21 22 19 19 17 18 17 16 13 14 11 11 11 9 10 9 7 7 11 11 13 12 11 8 9 6 5 6
11 11 15 12 13 13 8 10 4 14 12 10 8 7 4 14 20 22 21 19 19 20 20 19 17 17 16 18 14 15 14 14 12 11 11 9 7 7 10 11 11 11 9 10 9 8 8 4 6
9 12 12 8 11 8 9 6 1 12 8 12 11 9 8 6 14 19 18 19 17 18 18 18 17 17 17 19 17 15 17 16 13 11 10 11 8 7 9 11 11 11 11 10 9 8 8 5 6
7 12 10 12 10 11 11 9 12 9 10 10 12 9 6 3 7 11 16 17 17 17 18 18 18 18 17 17 15 15 15 16 15 14 12 11 10 9 8 10 11 11 11 11 10 9 6 10 10
9 12 11 10 12 10 9 6 10 9 10 9 10 10 7 10 9 12 9 15 17 16 15 17 16 16 16 15 13 15 14 14 16 14 15 15 13 11 10 10 12 11 12 11 12 12 11 11 10
Wind_Direction
183 197 226 228 247 216 79 67 123 111 91 87 63 30 86 35 33 84 129 120 136 168 135 141 136 136 134 136 135 135 131 134 128 124 116 111 107 104 90 77 69 69 83 97 93 96 107 108 108
203 218 226 258 249 58 86 99 87 96 106 125 103 70 45 67 59 115 113 149 156 175 141 137 138 139 134 137 137 138 135 137 133 128 121 118 110 102 89 76 67 75 90 101 93 107 102 102 104
247 252 257 236 29 50 62 119 108 102 131 122 98 84 55 61 85 26 119 163 143 140 144 119 142 138 135 136 140 143 144 141 135 130 121 118 109 95 87 82 82 90 97 101 98 102 109 110 103
192 204 237 18 64 62 71 85 121 136 106 86 119 87 91 17 82 311 152 178 154 161 146 129 144 145 143 146 147 148 149 149 145 146 140 136 118 107 97 94 96 107 107 107 106 107 109 113 109
241 250 261 85 74 60 67 95 114 152 146 140 169 137 106 151 268 217 157 160 165 133 137 137 148 147 146 157 157 154 152 155 154 153 152 148 141 119 111 103 103 113 115 119 116 114 113 115 113
242 200 109 71 78 93 85 93 111 141 123 137 122 111 145 143 163 144 182 183 172 177 139 137 150 156 154 163 165 162 159 164 167 168 180 165 164 133 114 116 121 119 130 120 117 117 121 119 115
262 297 80 95 100 87 102 150 78 124 141 166 147 140 126 156 165 173 206 241 186 143 140 152 159 160 167 176 177 174 172 182 189 188 202 189 139 150 143 138 134 131 136 134 125 121 123 128 129
299 213 65 92 78 94 111 93 110 115 104 112 155 157 160 157 155 161 208 183 207 147 141 159 152 162 171 163 173 171 177 187 196 189 202 187 190 180 184 160 150 138 142 139 141 135 135 131 122
206 227 53 48 60 115 161 117 81 87 123 142 207 133 141 148 149 153 172 200 213 134 142 177 151 168 205 160 156 181 181 187 196 186 195 206 211 177 181 146 142 144 155 152 153 156 173 168 150
170 50 46 5 76 123 167 128 128 145 133 131 99 111 135 149 162 171 174 181 173 180 205 235 153 174 183 153 163 200 179 190 203 193 174 212 232 223 89 135 143 155 163 161 164 188 203 206 160
4 18 22 68 36 125 158 123 158 143 140 135 133 138 155 161 167 182 173 181 176 196 183 190 108 232 143 165 164 194 183 183 177 201 195 169 215 217 205 137 163 167 187 180 185 192 232 258 191
264 50 353 29 102 140 159 137 168 196 127 141 145 152 162 170 175 184 182 183 181 192 165 184 171 154 175 179 233 180 190 182 186 175 203 152 212 194 180 204 153 163 174 242 174 156 228 153 282
10 37 299 109 166 173 168 160 155 146 133 146 146 159 169 173 182 185 188 175 183 184 192 180 160 163 198 179 212 289 231 214 164 155 194 217 241 208 217 75 3 295 216 197 197 154 191 231 180
332 300 37 74 163 169 192 172 179 166 154 156 157 168 173 179 182 186 190 184 200 179 185 184 174 172 200 180 202 245 242 196 214 160 150 209 81 205 181 118 175 296 192 229 157 154 155 49 310
287 269 149 122 131 201 234 190 183 159 170 169 172 179 181 185 184 189 197 189 190 181 181 191 188 171 182 196 201 227 203 230 228 149 148 191 232 239 358 137 146 238 231 199 109 139 210 210 212
243 229 124 118 154 140 252 159 164 178 176 176 185 182 188 191 191 194 190 194 184 192 186 193 187 169 186 186 194 221 221 190 214 170 179 199 210 223 216 151 161 220 224 212 175 175 214 218 237
321 4 43 137 167 147 235 121 162 177 177 185 186 189 193 194 202 191 192 198 189 196 183 189 184 185 169 193 208 224 202 234 212 191 159 200 227 220 205 141 175 209 226 191 183 180 212 219 211
284 347 341 23 107 196 221 259 159 181 178 197 187 195 194 199 200 193 201 193 198 186 185 190 179 199 167 170 207 209 193 214 237 223 215 148 223 229 174 168 174 216 191 179 194 210 214 240 54
312 295 302 319 53 301 250 264 181 171 200 193 196 195 194 201 193 196 197 190 196 185 189 188 193 182 176 184 196 213 192 206 199 238 207 140 255 191 199 131 181 216 165 225 165 167 215 301 238
287 286 274 258 21 294 295 273 263 150 191 203 200 188 197 194 193 195 189 197 196 190 185 183 200 175 190 194 200 210 193 204 213 172 176 209 230 203 215 204 219 185 173 162 191 225 247 186 225
265 264 288 357 315 269 286 237 119 120 161 184 199 199 195 192 195 189 191 200 192 190 187 188 193 183 191 214 201 209 244 209 221 131 191 209 216 204 203 233 270 160 262 175 197 215 247 357 213
272 289 289 304 280 293 172 81 49 267 139 170 182 206 195 192 196 184 193 196 196 192 193 190 188 195 193 207 220 206 215 232 205 184 228 195 211 209 202 211 218 176 216 136 178 215 248 194 272
299 329 294 281 275 270 216 212 146 218 107 145 178 188 216 187 193 186 194 195 200 190 188 192 187 192 204 196 227 197 225 231 199 164 188 174 194 229 221 196 201 189 229 188 232 146 240 202 274
291 275 252 241 254 264 269 249 203 130 97 40 96 202 198 203 189 196 187 193 198 190 188 191 185 189 195 194 206 232 209 232 242 192 184 191 200 202 228 200 208 208 215 183 187 211 216 260 318
230 247 248 214 214 235 245 168 290 81 56 26 356 296 220 199 181 194 184 190 193 194 191 192 185 187 192 202 201 212 217 215 237 230 208 208 202 180 201 191 203 230 200 231 195 216 231 189 224
310 328 310 322 298 324 12 222 99 72 61 14 7 310 289 182 181 190 189 191 187 197 192 194 181 186 196 200 202 202 210 215 218 211 240 217 190 192 169 176 193 219 187 193 194 207 215 188 217
333 273 349 312 296 281 285 299 225 83 50 32 25 354 305 177 185 184 190 192 188 195 194 191 181 184 193 202 201 202 202 218 213 224 204 235 236 187 172 178 202 198 208 199 183 224 189 201 196
255 332 292 258 250 256 278 248 269 74 55 36 23 21 9 189 198 180 192 192 193 192 200 194 183 183 196 206 202 205 204 205 218 200 212 224 215 237 158 187 197 203 202 197 206 192 204 181 215
312 286 249 254 302 309 286 69 54 74 53 39 31 40 58 335 203 202 195 196 194 198 195 198 194 196 199 206 203 207 206 203 205 207 201 209 223 194 219 187 202 204 208 205 197 238 193 197 210
282 289 300 277 277 253 268 73 70 39 66 42 55 54 82 65 14 352 245 204 193 205 201 195 194 199 202 206 208 201 210 209 201 211 202 202 212 201 203 195 206 207 208 208 208 213 228 200 212